Location: Chuathbaluk
(61.5726°N, 159.2454°W)
Time: 07:14:57
(UTC+00:00)

XW-2F - Pass Details

Date: 21 January 2021
Orbit: 499 x 520 km, 97.5° (Epoch: 09 March)

Event Time Altitude Azimuth Distance (km) Brightness Sun altitude
Rises 04:28:39 0° 194° (SSW) 2,613 ? -15.1°
Reaches altitude 10° 04:30:57 10° 207° (SSW) 1,736 ? -15.4°
Maximum altitude 04:34:11 27° 267° (W) 1,014 ? -15.7°
Drops below altitude 10° 04:37:28 10° 327° (NNW) 1,760 ? -16.1°
Sets 04:39:50 0° 339° (NNW) 2,656 ? -16.4°
